Wisconsin Dells, Wisconsin, United States (53965)
Lat: 43.63N, Lon: 89.77W
Wx Zone: WIZ057
Local Info
Past Weather Observations for Thursday, August 21, 2014

NOTE: This archive is for the closest National Weather Service station to Wisconsin Dells. Information may differ from the station used for current weather conditions.

Click here for Long-term Archive

Time Weather Temperature Dewpoint Humidity Pressure Winds Precip Visibility
23:55
Clear
Fog And Mist
72°F / 22°C 68°F / 20°C 88% 29.92 in
(1013 mb)
Calm - 3SM
23:35
Clear
Fog And Mist
70°F / 21°C 68°F / 20°C 94% 29.95 in
(1014 mb)
Calm - 2 1/2SM
23:15
Clear
Fog And Mist
70°F / 21°C 68°F / 20°C 94% 29.95 in
(1014 mb)
Calm - 2 1/2SM
22:55
Clear
Fog And Mist
70°F / 21°C 68°F / 20°C 94% 29.95 in
(1014 mb)
Calm - 4SM
22:35
Clear
Fog And Mist
72°F / 22°C 68°F / 20°C 88% 29.95 in
(1014 mb)
Calm - 4SM
22:15
Clear
Fog And Mist
72°F / 22°C 68°F / 20°C 88% 29.92 in
(1013 mb)
Calm - 4SM
21:55
Clear
Fog And Mist
70°F / 21°C 68°F / 20°C 94% 29.92 in
(1013 mb)
S 4.6 mph
(S 7 kph)
- 4SM
21:35
Clear
Fog And Mist
72°F / 22°C 68°F / 20°C 88% 29.92 in
(1013 mb)
S 3.5 mph
(S 6 kph)
- 5SM
21:15
Clear
Fog And Mist
72°F / 22°C 70°F / 21°C 94% 29.92 in
(1013 mb)
Calm - 4SM
20:55
Clear
Fog And Mist
72°F / 22°C 70°F / 21°C 94% 29.92 in
(1013 mb)
Calm - 4SM
20:35
Partly Cloudy
73°F / 23°C 70°F / 21°C 89% 29.92 in
(1013 mb)
Calm - 7SM
20:15
Mostly Cloudy
73°F / 23°C 70°F / 21°C 89% 29.92 in
(1013 mb)
Calm - 7SM
19:55
Overcast
73°F / 23°C 70°F / 21°C 89% 29.92 in
(1013 mb)
Calm - 10SM
19:35
Overcast
73°F / 23°C 70°F / 21°C 89% 29.92 in
(1013 mb)
Calm - 10SM
19:15
Overcast
73°F / 23°C 70°F / 21°C 89% 29.92 in
(1013 mb)
SE 3.5 mph
(SE 6 kph)
- 10SM
18:55
Overcast
73°F / 23°C 70°F / 21°C 89% 29.92 in
(1013 mb)
Calm - 10SM
18:35
Partly Cloudy
75°F / 24°C 70°F / 21°C 83% 29.92 in
(1013 mb)
Calm - 10SM
18:15
Partly Cloudy
75°F / 24°C 70°F / 21°C 83% 29.92 in
(1013 mb)
Calm - 10SM
17:55
Overcast
77°F / 25°C 70°F / 21°C 79% 29.92 in
(1013 mb)
Calm - 10SM
17:35
Overcast
77°F / 25°C 70°F / 21°C 79% 29.92 in
(1013 mb)
S 3.5 mph
(S 6 kph)
- 10SM
17:15
Overcast
77°F / 25°C 70°F / 21°C 79% 29.92 in
(1013 mb)
Calm - 10SM
16:55
Overcast
75°F / 24°C 70°F / 21°C 83% 29.92 in
(1013 mb)
SE 3.5 mph
(SE 6 kph)
- 10SM
16:35
Overcast
75°F / 24°C 70°F / 21°C 83% 29.92 in
(1013 mb)
Calm - 10SM
16:15
Overcast
75°F / 24°C 70°F / 21°C 83% 29.89 in
(1012 mb)
SSE 3.5 mph
(SSE 6 kph)
- 10SM
15:55
Overcast
77°F / 25°C 70°F / 21°C 79% 29.89 in
(1012 mb)
SE 4.6 mph
(SE 7 kph)
- 10SM
15:35
Overcast
75°F / 24°C 70°F / 21°C 83% 29.89 in
(1012 mb)
SSE 5.8 mph
(SSE 9 kph)
- 10SM
15:15
Overcast
75°F / 24°C 70°F / 21°C 83% 29.89 in
(1012 mb)
SSE 8.1 mph
(SSE 13 kph)
- 10SM
14:55
Overcast
75°F / 24°C 70°F / 21°C 83% 29.89 in
(1012 mb)
S 9.2 mph
(S 15 kph)
- 10SM
14:35
Overcast
75°F / 24°C 70°F / 21°C 83% 29.92 in
(1013 mb)
S 8.1 mph
(S 13 kph)
- 10SM
14:15
Overcast
75°F / 24°C 68°F / 20°C 78% 29.92 in
(1013 mb)
SSE 9.2 mph
(SSE 15 kph)
- 10SM
13:55
Overcast
75°F / 24°C 68°F / 20°C 78% 29.92 in
(1013 mb)
S 11.5 mph
(S 19 kph)
- 10SM
13:35
Overcast
73°F / 23°C 68°F / 20°C 83% 29.89 in
(1012 mb)
SE 8.1 mph
(SE 13 kph)
- 10SM
13:15
Overcast
75°F / 24°C 68°F / 20°C 78% 29.92 in
(1013 mb)
SE 8.1 mph
(SE 13 kph)
- 10SM
12:55
Overcast
73°F / 23°C 70°F / 21°C 89% 29.92 in
(1013 mb)
SE 10.4 mph
(SE 17 kph)
- 10SM
12:35
Overcast
72°F / 22°C 68°F / 20°C 88% 29.92 in
(1013 mb)
SE 9.2 mph
(SE 15 kph)
- 10SM
12:15
Overcast
72°F / 22°C 68°F / 20°C 88% 29.95 in
(1014 mb)
S 8.1 mph
(S 13 kph)
- 10SM
11:55
Mostly Cloudy
70°F / 21°C 68°F / 20°C 94% 29.92 in
(1013 mb)
ESE 10.4 mph
(ESE 17 kph)
- 10SM
11:35
Partly Cloudy
70°F / 21°C 68°F / 20°C 94% 29.89 in
(1012 mb)
ESE 10.4 mph
(ESE 17 kph)
- 10SM
11:15
Overcast
68°F / 20°C 66°F / 19°C 94% 29.92 in
(1013 mb)
ESE 9.2 mph
(ESE 15 kph)
- 10SM
10:55
Overcast
Light Rain
68°F / 20°C 66°F / 19°C 94% 29.89 in
(1012 mb)
SE 11.5 mph
(SE 19 kph)
0.10 in
(2.54 mm)
5SM
10:35
Overcast
Rain
68°F / 20°C 66°F / 19°C 94% 29.95 in
(1014 mb)
SE 3.5 mph
(SE 6 kph)
0.06 in
(1.52 mm)
4SM
10:15
Overcast
68°F / 20°C 66°F / 19°C 94% 29.95 in
(1014 mb)
Calm 0.03 in
(0.76 mm)
7SM
09:55
Overcast
Rain
68°F / 20°C 66°F / 19°C 94% 29.98 in
(1015 mb)
Calm 0.15 in
(3.81 mm)
4SM
09:35
Overcast
68°F / 20°C 66°F / 19°C 94% 29.98 in
(1015 mb)
W 3.5 mph
(W 6 kph)
0.08 in
(2.03 mm)
3SM
09:15
Overcast
68°F / 20°C 66°F / 19°C 94% 29.95 in
(1014 mb)
Calm 0.01 in
(0.25 mm)
3SM
08:55
Overcast
Light Rain
68°F / 20°C 66°F / 19°C 94% 29.95 in
(1014 mb)
E 4.6 mph
(E 7 kph)
- 7SM
08:35
Overcast
Thunder Storms
70°F / 21°C 64°F / 18°C 83% 29.95 in
(1014 mb)
ESE 4.6 mph
(ESE 7 kph)
- 10SM
08:15
Overcast
Thunder Storms
70°F / 21°C 66°F / 19°C 88% 29.95 in
(1014 mb)
Calm - 10SM
07:55
Overcast
68°F / 20°C 66°F / 19°C 94% 29.92 in
(1013 mb)
Calm - 7SM
07:35
Mostly Cloudy
Fog And Mist
66°F / 19°C 64°F / 18°C 94% 29.92 in
(1013 mb)
Calm - 4SM
07:15
Partly Cloudy
Thunder Storms
66°F / 19°C 64°F / 18°C 94% 29.92 in
(1013 mb)
ENE 4.6 mph
(ENE 7 kph)
- 3SM
06:55
Mostly Cloudy
Fog And Mist
66°F / 19°C 64°F / 18°C 94% 29.92 in
(1013 mb)
ENE 4.6 mph
(ENE 7 kph)
- 4SM
06:35
Mostly Cloudy
66°F / 19°C 64°F / 18°C 94% 29.92 in
(1013 mb)
Calm - 4SM
06:15
Mostly Cloudy
Fog And Mist
66°F / 19°C 63°F / 17°C 88% 29.92 in
(1013 mb)
Calm - 4SM
05:55
Overcast
Fog And Mist
66°F / 19°C 63°F / 17°C 88% 29.95 in
(1014 mb)
Calm - 3SM
05:35
Overcast
Fog And Mist
66°F / 19°C 63°F / 17°C 88% 29.92 in
(1013 mb)
Calm - 3SM
05:15
Mostly Cloudy
Fog And Mist
66°F / 19°C 63°F / 17°C 88% 29.92 in
(1013 mb)
Calm - 4SM
04:55
Mostly Cloudy
Fog And Mist
64°F / 18°C 63°F / 17°C 94% 29.92 in
(1013 mb)
E 3.5 mph
(E 6 kph)
- 3SM
04:35
Mostly Cloudy
Fog And Mist
64°F / 18°C 63°F / 17°C 94% 29.92 in
(1013 mb)
E 3.5 mph
(E 6 kph)
- 2 1/2SM
04:15
Partly Cloudy
Fog And Mist
64°F / 18°C 63°F / 17°C 94% 29.89 in
(1012 mb)
E 5.8 mph
(E 9 kph)
- 3SM
03:55
Partly Cloudy
Fog And Mist
64°F / 18°C 63°F / 17°C 94% 29.92 in
(1013 mb)
E 3.5 mph
(E 6 kph)
- 4SM
03:35
Partly Cloudy
Fog And Mist
64°F / 18°C 63°F / 17°C 94% 29.92 in
(1013 mb)
Calm - 4SM
03:15
Mostly Cloudy
Thunder Storms
64°F / 18°C 63°F / 17°C 94% 29.92 in
(1013 mb)
Calm - 4SM
02:55
Mostly Cloudy
Fog And Mist
64°F / 18°C 63°F / 17°C 94% 29.92 in
(1013 mb)
Calm - 4SM
02:35
Mostly Cloudy
Thunder Storms
64°F / 18°C 63°F / 17°C 94% 29.92 in
(1013 mb)
Calm - 5SM
02:15
Mostly Cloudy
Fog And Mist
64°F / 18°C 63°F / 17°C 94% 29.92 in
(1013 mb)
ENE 3.5 mph
(ENE 6 kph)
- 5SM
01:55
Partly Cloudy
Fog And Mist
66°F / 19°C 63°F / 17°C 88% 29.92 in
(1013 mb)
Calm - 5SM
01:35
Partly Cloudy
Fog And Mist
66°F / 19°C 63°F / 17°C 88% 29.92 in
(1013 mb)
E 4.6 mph
(E 7 kph)
- 5SM
01:15
Partly Cloudy
Fog And Mist
66°F / 19°C 63°F / 17°C 88% 29.95 in
(1014 mb)
E 4.6 mph
(E 7 kph)
- 5SM
00:55
Clear
66°F / 19°C 63°F / 17°C 88% 29.95 in
(1014 mb)
ENE 3.5 mph
(ENE 6 kph)
- 7SM
00:35
Clear
66°F / 19°C 63°F / 17°C 88% 29.95 in
(1014 mb)
E 3.5 mph
(E 6 kph)
- 10SM
00:15
Clear
66°F / 19°C 63°F / 17°C 88% 29.95 in
(1014 mb)
Calm - 10SM
Time Weather Temperature Dewpoint Humidity Pressure Winds Precip Visibility


Weather for websites

WeatherForYou.com, LLC is not responsible for any damages or problems caused by this service. Current weather conditions are obtained from the closest station including government and personal stations which may have varying degrees of accuracy. Weather forecasts are derived from the NOAA NDFD. Like all things, this site belongs to Jesus Christ... He just trusts me to maintain it. If you have any questions or comments email webmaster@weatherforyou.com

Copyright © 2014, WeatherForYou.com LLC. All rights reserved.